星链-37141(STARLINK-37141)

导读

STARLINK-37141(NORAD编号68249)是美国太空探索技术公司(SpaceX)星链计划中的一颗低轨卫星,于2024年12月8日发射入轨,采用Starlink V1.0平台,运行在近地点约355公里、远地点约357公里的近地轨道,轨道倾角43.001°,周期约91.66分钟。 2025年12月,该卫星发生异常,轨道高度骤降约4000米,产生数十块碎片后与地面失联。SpaceX确认卫星大概率因内部问题发生爆炸,目前卫星仍保持大致完整但处于翻滚状态,预计会在几周内再入大气层烧毁,相关方面正在持续监测碎片轨迹。

基本信息
目录编号:
68249
目录名称:
STARLINK-37141
国际标识:
2026-054T
轨道中心:
EARTH
卫星名称:
星链-37141
卫星全名:
星链-37141(STARLINK-37141)
卫星状态:
在轨 (已飞行178 天)
发射日期:
2026-03-17 UTC
国别 :
美国 (US)
星等 :
--
该卫星已列入 空间交会检测服务 Space Conjunction Data Service (SCDS) ,当前飞行风险评估等级: 高风险
轨道信息
数据来源 国际轨道数据
星历时间: 2026-09-11T18:23:32+0800
10小时前
查看轨道信息
半长轴: 6840.851km
偏心率: 0.0001074
轨道倾角: 53.158°
近地点辐角 103.606°
升交点赤经 143.907°
平近点角 256.507°
近地点: 461.979km
远地点: 463.449km
周期: 93.848分钟
每日圈数: 15.343967
详细信息
固有亮度:
5
最大亮度:
2.5
卫星平台:
Starlink V1.0
覆盖范围:
全球
运营商:
太空探索技术公司
运营商所在国:
美国
制造商(研发单位):
太空探索技术公司
制造商所在国:
美国
使用方式:
暂无
卫星简介
Starlink 计划是 SpaceX 推出的全球卫星互联网项目,通过发射低轨道卫星,为全球尤其是偏远地区提供高速、低延迟的互联网服务。自 2019 年起,Starlink 已部署数千颗卫星,旨在缩小全球数字鸿沟,推动互联网普及。该项目还为军事、航空等行业提供通信支持,带来广泛经济效益。
2D轨道图
3D轨道图
轨道高度分析图
轨道倾角分析图
轨道综合分析图
查看轨道综合分析图
交会数据列表
事件ID 空间交会对象 最接近时刻(TCA) 交会距离 交会风险概率(CRP) 交会风险指数(CRI) 操作
CDM_260912-074604-474406-824921
2026-09-12T
07:46:54+0000
0.495 km
远距离
1.365239E-4 高风险 0.78
CDM_260912-153505-884006-824921
2026-09-12T
15:35:38+0000
0.874 km
远距离
2.621125E-5 中风险 0.63
CDM_260914-034006-036106-824921
2026-09-14T
03:40:58+0000
1.099 km
极远距离
5.640349E-6 低风险 0.5
CDM_260913-001105-884006-824921
2026-09-13T
00:11:29+0000
2.002 km
极远距离
1.842696E-6 低风险 0.4
CDM_260912-223705-884006-824921
2026-09-12T
22:37:41+0000
2.027 km
极远距离
1.789589E-6 低风险 0.4
CDM_260913-004905-827606-824921
GENMAT-1 (58276)
2026-09-13T
00:49:49+0000
2.483 km
极远距离
1.764405E-6 低风险 0.4
CDM_260913-182305-419606-824921
2026-09-13T
18:23:59+0000
2.363 km
极远距离
1.388753E-6 低风险 0.38
CDM_260911-123805-246206-824922
2026-09-11T
12:38:15+0000
2.698 km
极远距离
1.360435E-6 低风险 0.38
CDM_260914-012006-036106-824921
2026-09-14T
01:20:17+0000
1.865 km
极远距离
1.137962E-6 低风险 0.36
CDM_260913-234606-036106-824921
2026-09-13T
23:46:30+0000
1.964 km
极远距离
1.006837E-6 低风险 0.35
与全量物体交会距离演化趋势
与全量物体交会风险概率演化趋势